CAPE
0 0 0 0 0 0 2 7 1 1 0 0 0 0 0 0 0 1 0 0 2 0 0 0 2 15 10 0 0 0 0 0 0 0 4 6 0 7 0 0 1 0 0
0 0 0 0 2 0 0 0 0 1 3 5 5 2 0 1 2 0 0 1 1 1 0 0 0 2 2 10 0 0 0 0 0 0 4 3 7 2 0 0 0 0 0
0 0 0 0 1 0 0 0 0 0 2 4 5 2 0 1 0 0 1 1 1 1 1 0 0 1 0 0 11 0 0 0 0 0 4 0 2 1 2 0 0 34 1
0 0 0 0 1 0 0 0 6 2 1 2 1 1 0 0 1 1 1 2 2 0 0 0 0 0 0 0 1 1 0 0 0 0 4 0 1 2 4 0 1 4 0
0 0 0 0 1 1 2 0 4 14 2 2 4 2 1 0 0 0 1 1 1 0 0 0 1 2 0 0 6 0 0 0 0 0 0 0 10 1 0 0 11 0 4
0 0 0 0 1 1 0 1 7 3 1 0 1 2 0 0 0 0 0 0 0 0 0 1 3 2 1 0 2 0 0 0 0 0 0 0 5 0 0 0 9 5 6
0 0 0 0 0 0 1 6 2 1 3 0 1 0 0 1 0 0 0 0 0 0 0 1 1 2 4 1 0 2 0 0 0 0 0 0 5 0 0 42 3 0 0
1 0 0 0 1 0 1 0 2 6 0 0 0 0 0 0 0 0 0 0 1 1 1 0 0 0 1 0 3 0 0 0 0 0 0 0 8 2 25 19 1 0 1
2 1 1 1 1 0 3 0 8 1 0 1 0 0 0 0 1 1 0 0 1 0 1 1 3 0 0 2 0 0 0 0 0 0 0 0 13 17 24 23 5 0 3
2 1 1 2 1 0 1 1 9 0 0 3 1 4 2 1 1 6 0 0 0 0 1 4 0 2 0 0 0 0 0 0 0 0 0 1 44 27 8 12 0 1 1
1 1 1 1 0 1 1 4 3 1 0 1 2 0 0 0 1 0 1 1 0 0 0 0 1 0 0 0 0 0 0 0 0 0 8 18 1 0 0 1 0 0 0
1 2 0 0 1 1 0 0 1 1 2 3 0 2 0 0 0 2 1 0 1 0 1 1 0 0 0 0 0 0 0 0 2 6 5 0 0 0 0 0 0 0 0
2 3 0 0 1 0 0 1 0 2 4 6 0 0 3 1 0 0 0 0 0 0 0 0 0 0 0 0 0 0 0 1 1 0 0 0 0 3 2 1 1 0 0
3 3 1 0 0 0 0 1 0 0 1 2 4 0 0 5 0 1 1 1 0 0 0 0 0 0 0 0 3 0 0 0 0 0 0 0 2 1 1 2 1 1 0
3 3 2 1 0 0 0 0 0 0 0 5 2 3 0 0 0 3 5 0 0 0 0 0 1 0 0 0 0 0 0 0 0 0 0 1 0 1 1 2 0 1 0
2 3 3 2 0 0 1 1 0 0 0 0 1 0 0 0 0 0 0 0 0 0 5 1 0 0 0 0 0 0 0 0 0 0 0 0 0 0 0 1 2 0 0
0 2 2 2 3 1 0 1 0 1 0 0 0 0 0 0 0 0 0 0 0 0 0 0 0 0 0 0 0 0 0 0 0 0 0 0 0 1 0 1 5 1 5
0 0 2 3 2 2 0 2 2 0 0 0 0 0 0 0 0 1 4 0 1 0 0 0 0 0 0 0 0 0 0 0 0 0 0 0 1 0 1 2 2 1 2
0 0 0 1 1 1 2 2 2 1 1 0 0 0 0 0 0 0 0 0 1 0 0 0 0 0 0 0 0 0 0 0 0 0 0 0 1 2 5 7 4 4 3
0 0 0 0 0 1 1 2 3 2 2 2 2 1 1 0 0 0 0 1 1 0 0 0 0 0 0 0 0 0 0 0 0 0 0 0 1 2 5 3 4 3 5
0 0 0 0 0 0 0 1 1 2 3 2 2 2 2 0 0 0 1 0 0 0 0 0 0 0 0 1 0 0 0 0 0 0 0 0 1 1 4 2 4 4 0
0 0 0 0 0 0 0 0 0 2 2 2 2 2 2 1 1 1 1 1 1 1 1 0 0 0 1 1 0 0 0 0 0 0 0 2 3 4 2 4 4 3 3
0 0 0 0 0 0 0 0 0 0 0 0 2 2 1 1 1 1 1 1 2 2 1 1 2 2 2 0 0 0 1 2 1 1 0 1 2 1 1 0 0 2 2
0 0 0 0 0 0 0 0 0 0 0 0 0 0 2 3 3 2 2 3 1 2 2 2 2 1 2 2 1 0 0 0 0 0 0 0 1 1 1 1 1 2 2
0 0 0 0 0 0 0 0 0 0 0 0 0 0 0 0 0 1 3 4 2 1 1 1 2 1 0 0 0 0 0 0 0 0 0 0 1 1 1 1 0 0 0
0 0 0 0 0 0 0 0 0 0 0 0 0 0 0 0 0 0 0 0 1 0 0 0 0 0 0 0 0 1 1 0 0 0 0 0 0 1 0 0 0 0 0
CIN
0 0 0 0 0 0 0 0 -1 -4 -1 0 0 0 0 0 0 0 0 0 0 0 0 0 -2 0 -5 -2 0 0 0 0 0 0 -11 -10 0 -5 0 0 -11 0 0
0 0 0 0 -3 -1 -1 0 0 -1 0 -1 0 -3 0 0 0 -1 0 0 0 0 0 0 0 -9 -8 -1 -3 0 0 0 0 0 -10 -13 -5 -5 -1 0 0 0 0
0 0 0 -1 -1 -1 -2 0 0 0 -2 -1 -2 0 0 -2 0 0 0 0 0 0 0 0 0 0 0 0 0 0 0 0 0 0 -3 -8 -7 -9 -3 0 0 -8 -15
0 0 0 -1 -1 -2 0 0 -5 -2 -1 -1 0 -3 0 -1 0 0 0 0 0 0 0 0 0 0 0 0 0 0 0 0 0 0 -5 0 -11 -3 -3 0 -1 -12 0
0 0 0 0 0 0 0 -3 -1 -1 0 0 -2 0 0 0 0 0 0 0 0 0 0 0 0 0 0 0 -3 0 0 0 0 -1 0 0 -5 -2 0 0 -2 0 -1
0 -1 0 0 0 0 0 -4 0 -2 0 0 -1 -2 -2 0 0 0 0 0 0 0 0 0 0 0 0 0 0 0 0 0 0 0 0 -4 -3 0 0 0 -7 -2 -15
0 0 0 0 0 0 0 -1 -2 -1 0 0 -1 -1 -2 0 0 0 0 0 0 0 0 -1 0 0 0 0 0 -3 0 0 0 0 0 0 -6 0 0 -4 -6 0 0
0 0 0 0 0 0 -2 -3 -2 -1 0 0 0 0 -2 0 0 0 -1 0 0 -2 0 -1 0 0 0 0 0 0 0 0 0 0 0 0 -45 -8 -3 -15 -11 0 0
0 0 0 0 0 0 -1 -2 -1 -3 0 0 0 -1 0 0 0 0 0 0 0 0 -1 0 0 0 0 0 0 0 0 0 0 0 0 0 -82 -17 -18 -45 -21 0 0
0 0 0 0 0 0 -1 -8 -1 0 0 0 0 0 0 -2 0 0 0 0 0 0 0 0 0 0 0 0 0 0 0 0 0 0 0 -2 -28 -38 -36 -19 -10 0 0
0 0 0 0 0 0 0 -1 -7 -1 0 -1 -1 -1 0 0 0 0 0 0 0 0 0 0 0 -3 0 0 0 0 0 0 0 0 -12 -28 -14 0 0 -24 0 0 0
0 0 0 0 0 0 0 -4 -6 -3 -2 -2 -3 -5 0 0 0 0 0 0 0 0 0 0 0 0 0 0 0 0 0 0 -12 -21 -33 0 0 0 0 0 0 0 0
0 0 0 0 0 0 0 0 -3 -8 -2 -1 0 0 0 0 0 0 0 0 -1 0 0 0 0 0 0 0 0 0 0 -14 -24 -9 0 0 0 0 0 0 0 0 0
0 0 0 0 0 0 0 0 0 0 -6 -2 -1 0 0 -1 0 0 0 0 0 0 0 0 0 0 0 0 -6 0 0 0 0 0 0 0 0 0 0 0 0 0 0
0 0 0 0 0 0 0 0 0 0 0 -2 -1 -3 0 0 -1 -1 0 0 0 0 0 0 0 0 -1 0 0 0 0 0 0 0 0 0 0 0 0 0 0 0 0
0 0 0 0 0 0 0 0 0 0 0 0 -4 -6 0 0 0 0 -2 0 0 0 -4 -1 0 0 0 0 -2 0 0 0 0 0 0 0 0 0 0 0 0 0 0
0 0 0 0 0 0 0 0 0 0 0 0 0 -1 0 0 -2 -4 0 0 0 0 0 0 0 0 0 0 0 0 0 0 0 0 0 0 0 0 0 0 0 0 0
0 0 0 0 0 0 0 0 0 0 0 0 0 0 0 0 0 -5 0 0 0 0 0 0 0 0 0 0 0 0 0 0 0 0 0 0 0 0 0 0 0 0 0
0 0 0 0 0 0 0 0 0 0 0 0 0 0 0 0 0 0 0 0 0 0 0 0 0 0 0 0 0 0 0 0 0 0 0 0 0 0 0 0 0 0 0
0 0 0 0 0 0 0 0 0 0 0 0 0 0 0 0 0 0 0 0 0 0 0 0 0 0 0 0 0 0 0 0 0 0 0 0 0 0 0 0 0 0 0
0 0 0 0 0 0 0 0 0 0 0 0 0 0 0 0 0 0 0 0 0 0 0 0 0 0 0 0 0 0 0 0 0 0 0 0 0 0 0 0 0 0 0
0 0 0 0 0 0 0 0 0 0 0 0 0 0 0 0 0 0 0 0 0 0 0 0 0 0 0 0 0 0 0 0 0 0 0 0 0 0 0 0 0 0 0
0 0 0 0 0 0 0 0 0 0 0 0 0 0 0 0 0 0 0 0 0 0 0 0 0 0 0 0 0 0 0 0 0 0 0 0 0 0 0 0 0 0 0
0 0 0 0 0 0 0 0 0 0 0 0 0 0 0 0 0 0 0 0 0 0 0 0 0 0 0 0 0 0 0 0 0 0 0 0 0 0 0 0 0 0 0
0 0 0 0 0 0 0 0 0 0 0 0 0 0 0 0 0 0 0 0 0 0 0 0 0 0 0 0 0 0 0 0 0 0 0 0 0 0 0 0 0 0 0
0 0 0 0 0 0 0 0 0 0 0 0 0 0 0 0 0 0 0 0 0 0 0 0 0 0 0 0 0 0 0 0 0 0 0 0 0 0 0 0 0 0 0
Wind_Speed
34 35 34 36 36 32 31 30 29 26 23 23 23 24 25 23 21 25 28 32 30 28 30 31 35 32 28 28 29 28 34 29 29 23 24 21 25 22 21 25 23 24 29
34 34 36 31 32 30 28 25 22 20 20 18 15 16 16 17 18 17 23 26 31 34 34 34 37 33 30 30 31 32 35 31 27 25 22 22 24 23 21 25 25 25 24
32 31 30 31 29 28 25 22 24 25 24 23 20 17 16 14 10 11 14 19 24 33 37 39 39 38 35 35 34 33 32 33 30 28 25 23 26 26 22 25 25 18 17
28 32 30 30 28 26 23 24 27 27 27 27 25 27 20 15 12 13 13 15 18 19 25 32 33 39 37 36 37 33 32 34 32 29 25 25 26 24 23 25 23 20 22
35 34 32 29 28 27 28 29 28 29 28 29 27 24 20 16 12 10 12 13 16 22 25 29 33 35 40 40 39 35 32 34 33 28 27 27 27 26 27 26 23 21 22
36 34 31 31 30 29 29 30 28 30 31 30 29 26 23 16 8 3 5 8 15 21 23 22 32 38 41 44 38 34 34 36 32 28 28 28 27 27 29 27 23 26 24
36 33 33 32 30 30 29 30 30 31 31 32 30 27 23 18 10 5 2 8 12 18 21 23 27 31 39 39 35 35 33 32 28 27 28 27 28 29 28 24 24 26 23
34 33 32 32 30 30 28 30 33 33 34 32 30 27 24 19 13 1 1 5 11 16 20 19 28 33 37 38 40 37 35 34 29 25 24 25 27 27 24 23 25 22 19
34 31 32 32 30 29 29 31 33 35 33 32 30 29 24 14 3 1 1 6 10 14 21 23 28 34 41 36 37 37 34 33 27 25 24 23 23 20 21 23 27 28 26
32 32 32 33 31 30 29 32 32 35 33 31 25 20 22 19 15 11 6 11 11 15 20 23 25 35 38 38 36 37 37 33 30 28 25 23 18 20 21 26 30 31 27
28 29 32 34 33 32 31 34 32 32 24 24 25 23 20 17 23 4 1 12 17 13 17 21 27 31 36 37 34 35 35 33 31 29 26 21 20 22 22 24 28 33 34
30 30 31 35 37 34 34 36 28 23 26 28 27 27 26 23 26 26 14 13 19 17 21 24 31 31 35 35 33 33 35 33 26 24 25 24 24 23 23 22 23 22 22
31 31 29 34 37 38 35 34 23 26 29 30 30 29 29 27 24 27 26 25 26 28 27 28 28 32 35 35 33 34 32 27 25 27 29 28 25 26 22 23 19 16 18
34 32 31 32 35 40 37 33 24 28 32 30 30 30 30 28 29 29 30 29 30 32 32 29 30 31 33 31 29 28 27 25 28 30 30 27 26 27 27 25 22 24 19
34 32 32 32 32 35 39 37 29 29 30 31 33 32 33 32 31 32 35 38 38 37 33 31 34 34 33 30 29 28 26 28 31 30 28 29 28 29 25 27 24 27 28
36 31 31 32 31 32 34 35 36 33 31 32 34 34 34 34 34 33 38 41 36 32 31 32 33 33 33 31 31 30 30 31 30 29 30 32 31 32 30 28 23 31 27
35 34 32 32 32 32 33 34 35 33 32 31 32 31 31 32 33 33 34 33 31 31 32 32 32 30 31 28 29 31 31 30 28 29 30 31 30 32 30 29 24 21 23
36 33 32 31 31 32 32 33 33 33 33 31 29 28 28 28 29 31 29 30 30 28 29 30 29 28 28 30 31 29 28 28 28 29 28 30 30 28 27 24 27 23 16
33 32 32 30 29 29 31 32 31 32 31 30 28 26 23 25 24 23 23 26 26 27 26 26 27 30 30 29 29 28 27 27 27 26 29 31 29 26 22 32 25 17 12
33 34 32 33 31 29 30 30 31 31 31 29 28 24 22 26 27 26 25 26 28 28 28 28 28 27 27 29 28 27 25 26 25 26 28 29 24 20 24 19 19 12 11
29 31 34 32 34 33 29 33 29 30 31 30 28 25 25 27 26 25 24 24 26 26 26 26 26 25 26 27 26 25 24 23 23 23 23 21 18 18 14 11 10 9 11
26 29 29 32 33 31 35 34 34 30 29 29 29 28 27 27 26 25 24 23 23 23 23 24 24 24 24 24 24 23 22 23 24 23 21 18 15 14 10 6 6 7 6
23 26 28 28 29 31 32 30 31 32 30 26 25 26 25 26 25 23 23 22 22 22 21 23 23 22 22 20 20 20 20 20 21 18 14 10 8 6 4 5 8 8 9
21 23 24 25 26 28 28 31 30 17 22 23 23 24 25 26 24 24 23 21 21 22 23 23 23 22 20 19 19 19 19 18 18 15 10 4 6 6 7 8 10 8 8
17 20 21 22 23 24 26 26 26 29 30 22 16 17 19 19 21 21 21 19 18 18 19 20 20 18 15 14 14 13 10 5 2 2 2 6 9 7 6 5 7 8 10
18 22 18 18 20 22 23 22 22 23 22 23 23 24 25 21 12 8 14 15 15 12 12 13 12 11 10 7 4 2 1 0 1 2 4 7 8 8 7 7 7 6 6
Wind_Direction
357 355 355 349 344 343 343 342 340 340 337 332 327 321 314 310 301 278 272 263 263 258 256 252 247 245 243 243 245 244 239 246 242 255 242 236 234 241 239 236 237 237 233
3 359 353 1 358 357 357 358 355 350 344 340 335 329 323 315 309 290 276 268 261 256 252 249 245 238 238 239 239 237 234 238 243 243 236 235 233 236 238 230 231 233 232
5 9 7 6 7 6 6 3 357 351 346 341 336 327 321 316 306 295 282 272 268 256 249 244 240 236 232 232 235 233 233 232 233 235 233 233 228 232 232 229 230 230 231
15 12 13 12 12 11 9 3 1 359 353 346 340 328 322 310 301 293 280 271 263 257 246 236 232 230 226 225 228 227 229 226 228 228 229 225 227 227 228 225 227 230 224
14 15 17 17 17 16 13 10 7 2 0 351 346 341 334 323 307 290 278 265 258 248 244 237 231 227 224 221 223 221 224 220 220 224 223 221 222 223 219 220 223 220 212
18 20 23 21 21 20 18 16 16 11 9 3 356 350 346 339 330 301 280 262 248 239 234 232 228 223 219 214 214 217 218 212 215 219 216 217 219 217 214 217 216 202 200
23 27 26 26 26 25 24 24 26 24 19 11 7 5 8 15 40 48 272 251 233 229 225 224 219 213 207 207 207 211 211 211 216 215 215 221 218 212 214 214 207 204 198
28 30 30 30 32 31 33 32 28 27 24 22 20 21 27 30 36 352 193 236 228 222 217 217 213 206 203 203 202 205 206 206 211 216 221 227 214 212 216 211 199 192 185
33 35 34 34 36 38 40 38 34 32 34 37 45 48 31 19 6 343 319 237 227 218 213 209 205 200 196 194 197 199 202 205 211 215 219 218 208 211 212 199 197 188 188
40 41 40 40 42 43 45 44 44 45 51 70 94 111 118 133 158 189 216 205 198 203 195 197 195 194 191 193 194 196 196 200 203 206 209 207 206 209 203 203 195 192 191
47 48 47 46 47 49 52 50 54 64 90 101 104 109 113 126 127 30 50 195 185 177 181 185 183 180 185 189 192 195 196 198 202 204 206 203 204 203 205 196 197 194 197
53 56 54 51 51 55 58 59 71 90 95 97 100 104 104 107 114 123 157 166 179 172 170 173 175 179 182 186 189 191 193 198 203 202 198 198 197 199 192 192 192 194 197
58 60 61 58 57 59 63 68 84 89 92 95 98 100 103 106 112 124 137 140 152 157 158 158 163 173 177 179 185 190 192 194 197 193 192 191 194 190 187 181 179 170 175
59 62 65 64 63 62 67 76 88 89 90 96 99 101 103 108 113 121 129 138 142 147 150 156 161 164 168 176 181 182 186 192 189 186 186 189 189 185 184 183 180 182 175
60 67 67 69 70 70 70 75 86 88 92 96 97 100 104 107 112 120 125 131 138 145 150 153 156 161 165 170 175 180 185 183 181 183 184 183 183 182 183 184 186 185 185
63 69 71 72 74 75 77 80 83 89 94 97 97 101 105 111 115 118 122 128 136 143 146 148 153 158 163 167 171 175 176 176 178 181 180 179 179 180 179 180 183 177 178
66 69 73 75 76 78 80 83 86 90 95 96 99 104 107 113 117 120 124 130 136 140 142 146 152 157 161 165 168 169 170 174 177 176 176 178 179 177 181 182 186 183 185
68 70 74 76 79 80 83 85 89 93 96 99 104 106 108 114 118 122 127 131 134 139 144 147 152 157 159 160 162 166 168 172 173 174 177 178 179 180 182 186 182 180 175
70 72 73 76 80 85 86 87 90 93 99 104 109 111 111 116 118 124 129 133 138 142 145 147 151 154 156 159 161 164 166 169 173 174 173 175 178 183 185 179 189 192 182
68 71 76 76 79 84 86 89 91 94 99 104 108 113 118 122 121 124 128 130 136 140 143 146 150 155 159 160 161 164 166 168 172 171 172 175 182 185 179 184 189 179 180
71 72 71 78 77 80 88 85 94 98 98 102 106 112 118 122 126 128 131 134 140 143 145 148 152 154 158 161 164 165 168 173 176 176 177 183 188 190 189 188 178 156 126
74 74 76 76 79 85 82 86 89 98 104 104 107 110 116 119 124 128 132 137 142 147 151 153 155 158 161 163 166 169 171 175 179 180 182 185 187 189 191 178 146 145 133
76 77 77 79 83 83 85 90 91 92 98 105 110 112 118 120 124 131 136 140 145 149 153 156 159 162 165 169 172 175 175 177 182 188 189 189 186 177 131 120 107 107 107
77 79 81 82 84 85 88 87 90 100 104 109 110 112 116 118 124 129 135 142 147 150 152 154 157 163 167 170 174 177 179 181 186 194 197 144 99 92 98 97 95 90 88
83 81 83 83 86 88 89 92 96 93 94 107 112 118 121 125 128 131 135 144 151 156 158 159 161 168 175 180 182 187 196 201 125 93 91 79 88 91 91 74 78 86 88
69 63 80 89 88 87 89 95 100 102 105 107 109 108 108 118 132 145 146 154 158 167 174 178 184 190 195 204 215 218 216 229 350 25 61 72 78 77 80 77 78 76 68